STARLINK-32916, 62922

Orbit data source: Space-Track

STARLINK-32916, 62922 is a payload satellite owned by SpaceX/Seattle (US) in LEO that was launched on Sat, 08 Feb 2025 UTC via an FALCON 9 launch vehicle from the Air Force Eastern Test Range (AFETR). Payload-class satellites include a variety of spacecraft equipped with specific instruments for various scientific and technological missions. These include communications satellites like Starlink; space stations such as the ISS; scientific satellites like the Hubble; Earth observation satellites from companies like Planet Labs, Umbra, and HawkEye 360; GPS; miniature CubeSats for education and research; and military/defense satellites.

Loading next visibility...
Identifier
62922, 2025-027R
Orbit
LEO
Country
Flag of USUS
Related business
Manufacturer
SpaceX/Seattle
Mission
Operational Commercial Communications
Bus & Motor
STARLINK V2M, Unknown motor
Mass
730 kg wet, ~700 kg dry
Launch date (UTC)
2025-02-08 (1 year ago)
Launch vehicle
FALCON 9
Launch site
Air Force Eastern Test Range (AFETR)
Object type
Payload
Rocket body
Debris
Shape & HBR
Box + 2 Pan, 17.7 m
Radar Cross Section
33.884 m², Large (>1 m²)

Expand to show TLE details & history
Last TLE update: 16 hours ago

TLE from 16 hours ago
0 STARLINK-32916
1 62922U 25027R   26145.45590721  .00012981  00000-0  48028-3 0  9994
2 62922  43.0045  55.2512 0001004 279.0212  81.0526 15.27588467 73282
Epoch: 2026-05-25T10:56Z
TLE epoch observation values (Epoch: 2026-05-25T10:56:30.382Z)
Latitude
-0.00004°
Longitude
8.08112°
Altitude
482.693 km
Speed
7.626 km/s
True Right ascension
03h 41m 00s
True Declination
0° 00' 00"
Sunlit
Object was in daylight at epoch
Visualization orbit readout
Latitude
Unknown
Longitude
Unknown
Altitude
Unknown
Speed
Unknown
Apparent Right ascension
Unknown
Apparent Declination
Unknown
Sunlit
N/A
Visualization observer readout
Local Sidereal Time
12:08:13
Azimuth
Unknown
Elevation
Unknown
Doppler factor
Unknown
Orbital elements
Apogee altitude
485.657 km
Perigee altitude
484.279 km
Semi-major axis
6,863.105 km
Eccentricity
0.0001
Inclination
43.0045°
RAAN
55.2512°
Arg. of periapsis
279.0212°
True anomaly
81.06397°
Mean anomaly
81.0526°
Eccentric anomaly
81.05828°
Mean motion
3.81735 °/min
Orbital period
94.31 mins
BSTAR
0.00048028
Loading maneuver chart data...
Computing Atmospheric mass density...
Loading historical data...
Loading historical data...
Loading historical data...
Loading historical data...
Loading historical data...
Loading historical data...
Loading historical data...

Documentation

Showing up to 5 results
|